Wind_Speed
44 45 46 47 45 45 47 48 49 48 48 45 44 44 43 43 42 42 42 41 41 41 40 41 42 42 42 42 41 41 41 41 40 40 40 40 40 40 40 40 41 42 42 42
44 45 48 49 47 45 46 47 48 48 47 44 45 46 45 44 44 43 43 43 42 41 41 42 42 42 42 42 41 41 41 41 40 40 40 40 40 41 41 42 42 42 42 42
45 44 48 51 47 45 46 46 46 47 45 45 47 47 47 45 45 44 44 44 44 44 43 42 42 42 42 42 41 41 41 40 40 40 40 40 41 41 42 42 42 43 43 43
44 45 50 48 45 45 45 45 45 45 45 45 46 46 46 46 45 44 44 44 44 45 44 42 42 42 42 42 41 41 41 41 40 40 40 41 41 41 42 43 43 43 43 43
42 43 46 46 44 44 46 46 44 44 44 45 46 46 47 46 45 44 43 43 43 44 44 42 42 42 42 42 42 42 42 41 41 41 41 42 42 42 42 43 43 43 43 44
42 43 43 39 40 43 45 45 42 43 44 44 45 46 45 44 45 44 43 43 42 42 43 43 42 43 43 42 42 42 42 41 41 42 42 42 43 43 43 43 44 44 44 45
41 43 42 37 37 41 44 42 42 42 43 44 45 44 43 44 45 45 44 43 41 41 42 42 42 43 43 42 42 41 42 42 41 42 42 43 43 43 43 44 44 45 45 46
40 42 39 36 37 39 40 40 41 42 42 43 43 42 42 43 43 44 44 44 42 41 41 42 42 42 42 42 41 41 41 42 42 41 42 42 43 44 44 44 45 45 46 46
41 41 38 38 39 39 39 39 39 42 42 43 42 42 41 41 41 41 42 43 42 41 41 41 41 41 41 41 41 41 42 42 42 42 42 42 44 44 45 45 45 46 46 46
42 40 39 39 40 40 40 40 39 40 42 42 43 43 42 40 40 40 41 41 42 42 41 41 41 41 41 41 41 42 42 42 42 42 42 43 43 44 44 44 45 45 46 47
44 42 41 40 40 40 41 41 40 40 41 42 42 41 41 41 40 40 41 42 43 42 42 41 41 41 41 42 41 41 41 42 42 42 43 43 43 43 43 44 45 46 47 47
44 42 43 41 40 41 43 42 41 41 41 41 42 41 40 40 40 40 40 41 42 42 42 41 41 41 41 41 41 41 40 41 41 42 42 43 43 43 44 45 45 46 46 47
41 43 44 43 43 42 43 43 42 42 42 42 41 41 41 40 40 40 40 40 41 41 41 41 41 41 41 41 41 40 40 40 41 41 42 42 43 43 44 45 46 46 47 48
39 42 44 43 43 42 42 42 42 42 42 42 41 42 42 41 40 40 40 40 40 40 40 40 40 40 40 41 41 41 41 41 41 42 42 43 43 44 45 45 45 46 47 48
37 39 41 42 42 41 41 41 41 40 40 40 40 41 41 41 41 40 39 39 39 40 40 40 40 41 41 42 42 42 42 42 43 44 43 44 44 44 44 44 45 46 47 48
37 37 39 41 41 40 39 39 39 38 38 39 39 39 39 39 39 39 39 39 39 39 40 40 40 41 42 42 42 42 42 43 43 43 43 43 43 43 44 45 46 46 47 48
37 37 38 40 41 41 40 39 37 37 38 39 39 39 39 39 39 39 39 39 40 40 40 40 41 42 42 42 43 43 43 43 42 42 42 42 43 43 44 45 45 46 48 49
36 36 36 37 39 39 39 38 37 35 35 36 37 38 39 40 40 41 40 41 41 41 42 42 42 42 42 42 42 42 42 42 42 42 42 42 43 43 44 45 46 47 49 49
36 36 36 36 36 37 37 36 36 35 35 35 37 38 39 40 41 41 42 42 43 42 42 42 42 42 42 42 41 41 41 41 41 42 42 43 43 44 45 46 47 48 49 49
34 35 35 35 35 36 36 36 36 36 35 36 37 38 39 39 39 40 40 40 40 40 40 41 41 41 41 41 41 41 41 41 42 42 42 42 43 44 45 46 47 48 49 49
32 33 33 35 35 36 36 37 37 36 36 36 36 37 37 38 38 38 38 38 38 38 39 40 40 40 40 41 41 41 41 41 41 41 42 43 44 45 45 46 46 47 48 49
31 31 32 33 34 35 35 36 37 37 36 36 36 36 36 37 37 38 38 38 37 37 37 38 39 39 39 39 39 40 40 40 41 41 42 43 44 44 44 45 46 47 47 48
30 30 31 32 33 34 35 36 36 37 37 36 35 35 36 36 36 36 36 36 36 37 37 37 37 37 37 38 38 38 39 39 40 41 42 42 42 43 43 45 46 47 47 48
30 30 30 30 32 33 34 34 35 35 35 35 35 34 35 35 35 34 35 35 35 36 36 36 36 36 37 37 37 38 38 38 39 39 40 40 41 42 43 44 45 46 46 46
29 29 29 29 31 32 32 32 32 33 34 34 34 34 34 35 35 35 35 34 34 34 34 34 34 35 35 36 36 36 37 37 38 38 39 40 41 41 42 43 44 43 43 42
28 28 28 28 28 28 29 30 31 32 33 33 33 33 33 33 34 34 33 33 33 33 33 33 33 33 34 34 35 36 36 37 37 38 39 40 40 41 41 41 41 40 40 40
27 27 27 27 27 27 27 28 29 30 31 32 32 32 33 33 33 34 34 34 33 33 33 33 32 32 33 34 34 34 35 36 37 38 38 39 39 38 38 38 38 38 39 39
Wind_Direction
247 247 247 247 247 248 249 251 253 251 251 252 254 256 256 257 257 258 258 260 261 262 263 263 263 263 264 265 266 268 269 271 273 273 274 275 277 279 281 283 285 287 289 290
249 249 248 247 247 249 251 251 253 253 252 252 254 255 255 256 257 258 259 260 260 261 262 262 263 264 264 265 266 267 269 270 272 273 274 275 277 279 281 283 285 287 289 290
249 248 248 247 248 251 251 250 252 253 253 252 253 254 255 256 258 258 259 260 260 261 261 262 263 264 264 264 265 267 268 270 272 273 274 275 277 279 281 283 285 287 288 290
252 250 250 249 250 251 252 250 251 253 252 252 252 253 254 256 258 258 258 259 259 259 260 261 261 262 262 263 265 266 268 270 271 272 274 275 277 279 281 283 285 288 289 291
251 253 255 251 251 253 256 255 253 254 253 253 254 254 254 255 256 258 257 257 257 257 258 258 260 261 262 263 264 266 268 270 270 272 273 275 277 280 282 284 286 288 289 291
252 254 254 254 253 254 256 257 254 255 254 254 254 255 255 254 255 256 257 256 255 255 256 257 258 261 261 262 264 266 268 269 270 272 273 275 277 279 281 283 285 287 289 291
253 254 254 253 253 253 255 257 256 255 254 254 254 256 255 254 254 255 256 256 254 254 255 257 258 259 261 262 263 265 267 268 270 272 274 276 278 280 282 284 286 287 289 291
251 254 255 253 253 253 255 255 255 255 255 255 256 256 255 254 253 254 255 255 254 255 255 256 257 259 260 261 262 264 266 268 270 272 275 277 278 280 282 284 286 288 289 291
252 254 257 253 253 253 253 254 256 256 255 256 256 256 254 253 253 254 254 254 255 256 257 257 258 259 260 261 262 264 266 267 269 272 274 276 278 280 282 284 286 287 289 291
252 253 256 255 254 253 252 253 255 255 255 255 256 256 254 253 253 253 253 254 254 255 258 259 259 260 261 262 263 264 266 267 270 272 274 276 278 281 283 285 286 287 289 291
255 256 258 257 254 252 251 251 252 253 255 256 257 257 255 255 255 255 255 255 255 257 258 259 260 261 262 263 264 266 268 269 270 272 274 276 278 280 283 285 286 288 290 292
260 258 258 256 254 253 252 252 252 253 255 255 256 255 254 254 253 254 255 255 256 256 257 257 259 261 262 263 265 267 268 269 270 272 275 277 279 281 283 285 287 288 290 292
262 258 257 255 253 253 254 253 253 254 254 254 254 254 254 254 253 254 255 255 256 256 256 256 257 259 261 263 264 266 267 269 270 273 276 278 280 282 283 284 286 288 290 292
263 260 257 255 254 254 253 253 253 254 253 252 253 253 253 253 254 254 255 256 257 257 258 258 258 259 261 264 265 266 268 271 273 275 277 278 280 281 283 284 286 288 290 292
263 262 258 255 255 255 254 254 254 253 253 251 251 252 252 251 252 254 256 257 258 259 259 259 260 260 262 263 266 268 270 272 274 275 276 278 280 282 283 285 287 289 291 293
263 262 260 256 256 257 256 255 254 253 252 252 252 252 252 253 253 254 256 257 258 259 260 260 261 262 262 263 266 269 271 273 275 276 278 280 281 282 283 285 287 289 291 293
262 261 261 258 256 256 256 256 255 253 253 253 253 254 254 254 254 256 257 258 258 259 260 261 261 262 264 265 267 268 271 272 274 276 277 279 280 282 284 286 288 290 292 293
263 262 261 260 256 254 254 254 253 252 253 253 253 254 255 256 256 257 257 258 259 260 261 261 261 262 264 265 266 268 270 271 273 276 277 279 281 283 285 287 289 291 293 294
264 262 261 260 257 253 252 251 252 254 254 253 253 254 254 256 258 258 258 260 260 259 260 261 262 263 263 264 266 268 269 271 273 276 278 280 283 285 287 288 290 292 294 295
267 265 262 258 255 252 251 251 252 254 254 254 254 255 255 256 257 258 259 259 260 260 260 260 262 264 264 265 266 268 270 271 274 276 279 282 284 286 287 289 291 293 294 295
267 266 263 258 254 251 251 252 253 254 254 254 254 255 255 256 257 259 261 262 262 261 260 260 261 262 264 265 267 269 270 273 275 277 279 282 284 286 287 290 292 294 294 296
268 265 262 258 254 252 251 252 253 254 255 255 254 254 255 256 257 258 260 261 261 261 261 261 262 263 265 266 268 270 271 273 276 277 280 282 284 286 289 291 293 294 295 296
268 266 263 259 255 253 253 254 255 255 254 254 254 254 254 254 255 257 258 259 260 260 261 261 262 263 265 267 269 270 273 275 277 278 280 282 285 287 289 291 293 294 295 296
269 267 264 261 258 258 258 258 257 256 254 253 253 253 252 253 255 256 257 258 260 261 261 262 262 264 265 267 270 272 274 277 279 280 282 284 287 289 291 292 293 294 295 296
268 265 264 263 261 260 258 256 256 255 253 253 252 252 252 252 253 255 256 258 260 261 263 264 265 266 267 269 272 273 275 278 280 282 284 286 288 289 291 293 294 295 296 297
270 266 265 265 263 261 259 257 256 254 253 252 251 251 251 252 253 254 255 258 262 264 265 267 267 268 270 271 273 275 277 279 281 283 285 287 288 290 291 293 295 296 296 297
270 267 265 264 264 262 261 259 257 255 254 252 251 250 251 252 254 255 257 260 262 264 266 266 267 269 271 272 274 277 279 281 282 284 285 287 289 290 292 293 295 296 297 298
Height
5606 5610 5612 5615 5620 5623 5626 5630 5634 5641 5646 5654 5656 5658 5660 5663 5666 5668 5671 5673 5675 5678 5679 5681 5682 5684 5685 5686 5687 5688 5688 5689 5689 5689 5688 5688 5687 5686 5684 5683 5681 5679 5676 5673
5595 5599 5601 5603 5608 5613 5617 5621 5625 5629 5635 5644 5644 5645 5648 5651 5654 5657 5660 5662 5665 5666 5668 5670 5671 5673 5674 5675 5676 5677 5678 5678 5678 5678 5678 5677 5676 5675 5674 5672 5670 5668 5666 5663
5584 5588 5587 5591 5601 5605 5608 5611 5614 5617 5627 5631 5632 5634 5637 5640 5643 5645 5648 5650 5652 5654 5656 5659 5660 5661 5663 5664 5665 5666 5667 5667 5667 5667 5667 5666 5665 5664 5663 5661 5659 5657 5654 5651
5573 5576 5575 5588 5593 5595 5597 5601 5604 5608 5614 5617 5619 5622 5625 5628 5630 5633 5636 5638 5640 5642 5645 5647 5648 5650 5651 5653 5654 5655 5656 5656 5656 5656 5656 5655 5654 5653 5652 5650 5648 5646 5643 5640
5562 5563 5566 5577 5583 5585 5585 5589 5595 5597 5602 5605 5607 5608 5612 5616 5618 5621 5624 5626 5628 5630 5632 5635 5637 5638 5640 5641 5642 5643 5644 5645 5645 5645 5644 5644 5643 5642 5641 5639 5637 5634 5631 5628
5552 5553 5557 5569 5574 5574 5574 5577 5585 5586 5589 5593 5594 5595 5603 5605 5606 5609 5612 5614 5616 5619 5621 5623 5625 5626 5628 5630 5631 5632 5633 5633 5633 5633 5633 5632 5631 5630 5629 5627 5625 5622 5620 5617
5543 5543 5547 5560 5562 5562 5564 5571 5573 5573 5576 5579 5581 5585 5590 5591 5594 5597 5600 5602 5604 5607 5609 5611 5613 5615 5616 5618 5620 5621 5621 5621 5622 5621 5621 5620 5619 5618 5617 5615 5613 5611 5608 5605
5534 5534 5542 5550 5550 5552 5554 5558 5559 5561 5563 5566 5570 5573 5576 5579 5582 5584 5587 5590 5592 5595 5597 5599 5601 5603 5605 5606 5608 5608 5609 5609 5610 5609 5609 5608 5607 5606 5605 5603 5601 5598 5595 5592
5525 5529 5534 5536 5537 5540 5542 5544 5547 5549 5552 5555 5558 5561 5564 5567 5570 5573 5576 5578 5581 5583 5585 5587 5589 5591 5593 5594 5595 5596 5597 5597 5598 5597 5597 5596 5595 5594 5592 5590 5588 5586 5583 5580
5514 5519 5522 5524 5525 5528 5530 5532 5535 5537 5541 5544 5546 5549 5553 5556 5559 5561 5564 5566 5569 5571 5574 5576 5577 5579 5581 5582 5582 5583 5584 5585 5585 5585 5585 5584 5583 5581 5580 5578 5575 5573 5570 5567
5503 5509 5510 5512 5514 5516 5518 5521 5524 5527 5529 5532 5535 5537 5540 5544 5547 5549 5552 5555 5557 5559 5561 5564 5566 5567 5568 5569 5570 5571 5572 5573 5573 5573 5572 5572 5571 5569 5567 5565 5563 5560 5557 5554
5494 5498 5497 5500 5502 5504 5506 5509 5512 5515 5517 5520 5523 5526 5528 5532 5535 5537 5540 5542 5545 5547 5549 5551 5553 5555 5556 5557 5558 5559 5560 5560 5560 5560 5560 5559 5558 5556 5554 5552 5550 5547 5544 5541
5482 5483 5484 5487 5490 5492 5494 5497 5500 5502 5505 5509 5512 5514 5517 5520 5523 5525 5528 5530 5532 5534 5536 5538 5540 5542 5544 5545 5546 5547 5548 5548 5548 5548 5548 5547 5546 5544 5542 5540 5537 5534 5531 5527
5470 5470 5472 5475 5477 5479 5481 5485 5488 5491 5493 5496 5500 5502 5505 5508 5511 5514 5516 5518 5520 5522 5524 5526 5528 5530 5531 5532 5534 5535 5535 5536 5536 5536 5535 5534 5533 5531 5529 5527 5524 5521 5518 5514
5459 5459 5460 5462 5464 5467 5469 5472 5475 5479 5482 5485 5488 5491 5494 5496 5499 5502 5504 5506 5508 5510 5512 5514 5516 5517 5519 5520 5521 5522 5523 5523 5523 5523 5522 5521 5519 5518 5516 5513 5511 5508 5505 5501
5447 5447 5448 5450 5453 5455 5458 5461 5464 5467 5470 5473 5476 5479 5482 5484 5487 5490 5492 5494 5496 5498 5500 5502 5503 5505 5506 5507 5509 5509 5510 5510 5510 5509 5509 5508 5506 5504 5503 5500 5498 5495 5492 5488
5435 5437 5438 5439 5442 5444 5447 5449 5452 5455 5458 5461 5464 5467 5470 5473 5475 5478 5480 5482 5484 5486 5488 5490 5491 5493 5494 5495 5496 5497 5497 5497 5497 5496 5496 5494 5493 5491 5489 5487 5484 5481 5478 5474
5423 5425 5426 5428 5430 5432 5435 5438 5441 5444 5446 5449 5452 5455 5458 5461 5463 5466 5468 5470 5472 5474 5476 5477 5479 5480 5481 5482 5483 5484 5484 5484 5484 5483 5483 5482 5480 5478 5476 5473 5471 5468 5464 5460
5412 5413 5415 5416 5418 5420 5423 5427 5430 5433 5435 5437 5440 5443 5446 5448 5451 5453 5455 5457 5459 5461 5463 5464 5466 5467 5468 5469 5470 5471 5471 5471 5471 5470 5470 5468 5466 5464 5462 5460 5457 5453 5450 5446
5402 5403 5404 5405 5407 5410 5413 5416 5419 5422 5424 5426 5428 5431 5433 5436 5438 5440 5442 5444 5445 5447 5449 5451 5452 5454 5455 5456 5457 5458 5458 5458 5458 5457 5456 5455 5453 5451 5448 5446 5443 5439 5436 5432
5392 5393 5393 5395 5397 5400 5402 5405 5408 5411 5413 5415 5417 5419 5422 5424 5426 5428 5430 5432 5433 5434 5436 5438 5440 5441 5442 5443 5444 5444 5445 5445 5444 5443 5443 5441 5439 5437 5435 5432 5429 5425 5422 5418
5382 5382 5383 5385 5387 5389 5392 5394 5397 5399 5402 5404 5406 5408 5410 5413 5414 5416 5418 5420 5421 5422 5424 5425 5427 5428 5429 5430 5431 5431 5431 5431 5431 5430 5429 5428 5426 5424 5421 5418 5415 5411 5408 5404
5373 5373 5374 5375 5377 5379 5381 5384 5386 5388 5390 5393 5395 5397 5399 5401 5403 5405 5407 5408 5410 5411 5412 5414 5415 5416 5417 5418 5418 5418 5418 5418 5417 5416 5415 5414 5412 5410 5408 5405 5401 5398 5394 5390
5363 5364 5364 5365 5367 5369 5371 5373 5375 5377 5379 5382 5384 5386 5389 5391 5393 5394 5396 5398 5399 5400 5401 5402 5403 5404 5405 5405 5406 5406 5406 5405 5405 5404 5402 5401 5399 5397 5394 5391 5387 5384 5380 5376
5355 5355 5356 5357 5358 5359 5361 5363 5364 5366 5369 5371 5374 5376 5378 5380 5382 5384 5386 5387 5388 5390 5391 5392 5392 5393 5393 5393 5394 5394 5394 5393 5392 5391 5390 5388 5386 5383 5381 5377 5374 5370 5367 5363
5347 5347 5347 5348 5349 5350 5351 5353 5355 5357 5359 5361 5363 5365 5368 5370 5372 5374 5375 5377 5378 5379 5380 5381 5381 5382 5382 5382 5382 5382 5382 5381 5380 5379 5377 5375 5373 5370 5368 5365 5362 5358 5355 5351
5339 5339 5339 5340 5341 5342 5343 5344 5345 5347 5349 5351 5353 5355 5358 5360 5362 5363 5365 5367 5368 5369 5370 5370 5370 5371 5371 5371 5371 5371 5370 5369 5368 5367 5365 5363 5361 5358 5356 5353 5350 5347 5343 5340